{"data":{"norad_id":68764,"intl_designator":"2026-083K","name":"COSMOS 2614","alt_names":[],"object_type":"PAYLOAD","status":"ACTIVE","operator":null,"country":"CIS","launch_date":"2026-04-16","launch_site_code":"PLMSC","launch_vehicle":null,"mission":null,"orbit_class":"UNKNOWN","rcs_meters":null,"size_class":null,"mass_kg":null,"dimensions":null,"purposes":[],"wikipedia_slug":null,"has_3d_model":false,"image_url":null,"decayed_at":null,"tle_current":{"epoch":"2026-05-24T22:31:15.453984Z","epoch_age_seconds":74393,"freshness":"FRESH","line1":"1 68764U 26083K   26144.93837331  .00001963  00000+0  14026-3 0  9998","line2":"2 68764  97.7744 281.9661 0007731  96.1246 264.0861 15.05664382  5709","mean_motion":15.05664382,"eccentricity":0.0007731,"inclination_deg":97.7744,"raan_deg":281.9661,"arg_perigee_deg":96.1246,"mean_anomaly_deg":264.0861,"bstar":0.00014026,"rev_number":570,"period_min":95.638843371404,"perigee_km":544.11130834854,"apogee_km":554.82276971369,"semimajor_km":6927.6040390311,"source":"CELESTRAK","updated_at":"2026-05-25T13:38:08.078716Z"}}}